Location: 10033 Water Well
(34.0865°N, 106.8959°W)
Time: 21:50:23
(UTC+00:00)

Cosmos 968 Rocket - Pass Details

Date: 13 January 2026
Orbit: 737 x 765 km, 74.0° (Epoch: 10 February)

Event Time Altitude Azimuth Distance (km) Brightness Sun altitude
Rises 01:24:41 0° 349° (N) 3,199 6.7 -13.5°
Reaches altitude 10° 01:27:09 10° 355° (N) 2,267 5.8 -14.0°
Maximum altitude 01:32:06 47° 69° (ENE) 977 3.6 -15.0°
Drops below altitude 10° 01:36:59 10° 144° (SE) 2,239 5.7 -16.0°
Sets 01:39:23 0° 150° (SSE) 3,156 6.5 -16.5°
